Hourly Data Report for February 01, 2004

TORONTO CITY
ONTARIO

43°40'00.000" N
79°24'00.000" W
112.50 m
6158355
71508
XTO

Download Data

Hourly Data (February 2004)
Hourly Data Report for February 1, 2004
TIME
LST
Temp Definition
°C
Dew Point Definition
°C
Rel Hum Definition
%
Precip. Amount Definition
mm

Wind Dir Definition
10's deg

Wind Spd Definition
km/h
Visibility Definition
km
Stn Press Definition
kPa
Hmdx Definition


Wind Chill Definition


Weather Definition


00:00 -7.2 -10.3 78   LegendMM LegendMM LegendMM 101.13     LegendNANA
01:00 -7.3 -10.3 79   LegendMM LegendMM LegendMM 101.21     LegendNANA
02:00 -7.4 -10.3 80   LegendMM LegendMM LegendMM 101.27     LegendNANA
03:00 -7.5 -10.8 77   LegendMM LegendMM LegendMM 101.36     LegendNANA
04:00 -8.0 -11.3 77   LegendMM LegendMM LegendMM 101.45     LegendNANA
05:00 -8.2 -10.9 81   LegendMM LegendMM LegendMM 101.56     LegendNANA
06:00 -8.4 -11.3 80   LegendMM LegendMM LegendMM 101.55     LegendNANA
07:00 -8.6 -11.7 78   LegendMM LegendMM LegendMM 101.63     LegendNANA
08:00 -9.3 -12.1 80   LegendMM LegendMM LegendMM 101.76     LegendNANA
09:00 -7.4 -11.2 74   LegendMM LegendMM LegendMM 101.85     LegendNANA
10:00 -6.5 -10.8 71   LegendMM LegendMM LegendMM 101.91     LegendNANA
11:00 -5.6 -10.9 66   LegendMM LegendMM LegendMM 101.91     LegendNANA
12:00 -4.4 -10.7 61   LegendMM LegendMM LegendMM 101.88     LegendNANA
13:00 -3.7 -10.6 59   LegendMM LegendMM LegendMM 101.85     LegendNANA
14:00 -2.8 -10.4 56   LegendMM LegendMM LegendMM 101.82     LegendNANA
15:00 -3.2 -9.9 60   LegendMM LegendMM LegendMM 101.84     LegendNANA
16:00 -2.9 -9.8 59   LegendMM LegendMM LegendMM 101.85     LegendNANA
17:00 -3.5 -9.2 65   LegendMM LegendMM LegendMM 101.90     LegendNANA
18:00 -4.4 -9.0 70   LegendMM LegendMM LegendMM 101.90     LegendNANA
19:00 -4.3 -9.0 70   LegendMM LegendMM LegendMM 101.96     LegendNANA
20:00 -4.6 -9.7 67   LegendMM LegendMM LegendMM 101.96     LegendNANA
21:00 -5.1 -9.8 70   LegendMM LegendMM LegendMM 101.99     LegendNANA
22:00 -5.1 -9.9 69   LegendMM LegendMM LegendMM 101.97     LegendNANA
23:00 -5.4 -9.9 71   LegendMM LegendMM LegendMM 102.00     LegendNANA

Notes on Data Quality.

Legend

  • E = Estimated
  • M = Missing
  • NA = Not Available*
  • [empty] = Indicates an unobserved value
Date modified: